Regional Weather Roundup
Issued by NWS Lake Charles, LA

Home | Current Version | Previous Version | Text Only | Print | Product List | Glossary On
Versions: 1 2 3 4 5 6 7 8 9 10 11 12 13 14 15 16 17 18 19 20 21 22 23 24 25 26 27
000
ASUS44 KLCH 170410
RWRLCH
RWRLCH
REGIONAL WEATHER ROUNDUP
NATIONAL WEATHER SERVICE LAKE CHARLES LA
1100 PM CDT WED APR 16 2014

Note: "fair" indicates few or no clouds below 12,000 feet with no
significant weather and/or obstructions to visibility.


ACROSS SOUTHEAST TEXAS

CITY           SKY/WX    TMP DP  RH WIND       PRES   REMARKS
BEAUMONT       PTCLDY    54  50  86 SE6       30.07F
BEAUMONT CITY  FAIR      54  50  85 E3        30.09R
ORANGE         PTCLDY    56  51  83 E5        30.10F
JASPER         PTCLDY    53  46  76 SE3       30.11S
$$

ACROSS CENTRAL LOUISIANA

CITY           SKY/WX    TMP DP  RH WIND       PRES   REMARKS
LEESVILLE      CLEAR     48  44  86 CALM      30.10S
FULLERTON      FAIR      49  44  83 CALM      30.09R
ALEXANDRIA INT CLEAR     51  45  79 CALM      30.11R
ESLER FIELD    CLEAR     45  42  89 CALM      30.13R
DERIDDER       FAIR      52  44  74 CALM      30.12S
OAKDALE        PTCLDY    46  44  94 CALM      30.12S
OPELOUSAS      FAIR      49  45  86 E5        30.13R
$$

ACROSS SOUTHWEST AND SOUTH CENTRAL LOUISIANA

CITY           SKY/WX    TMP DP  RH WIND       PRES   REMARKS
SULPHUR        PTCLDY    57  50  78 E5        30.11S
LAKE CHARLES   PTCLDY    52  49  89 SE5       30.10F
CHENNAULT INT  PTCLDY    53  49  86 SE6       30.11F
CAMERON PHI    MOCLDY    61  50  67 SE14      30.10F
DEQUINCY       FAIR      51  47  89 SE3       30.10S
JENNINGS       FAIR      52  48  87 SE3       30.12S
LAFAYETTE      CLEAR     52  50  93 CALM      30.14R
NEW IBERIA     CLEAR     52  48  86 SE7       30.14R
ABBEVILLE      FAIR      60  55  84 E3        30.13S
PATTERSON      CLEAR     54  46  76 SE6       30.17S
SALT POINT       N/A     58  49  72 SE7       30.13R
$$

SELECTED SITES ACROSS THE REGION

CITY           SKY/WX    TMP DP  RH WIND       PRES   REMARKS
HOUSTON BUSH   PTCLDY    57  51  80 E8        30.05R
HOUSTON HOBBY  PTCLDY    59  52  77 SE6       30.04R
GALVESTON      MOCLDY    63  55  75 SE15      30.05F
COLLEGE STAT   CLOUDY    57  49  74 SE8       30.03R
CONROE         PTCLDY    54  49  83 SE8       30.06R
HUNTSVILLE     MOCLDY    57  48  72 VRB6      30.04R
LUFKIN         PTCLDY    53  45  74 SE6       30.07R
SHREVEPORT     CLEAR     49  40  71 E3        30.09R
MONROE         CLEAR     44  41  89 CALM      30.14R
NATCHEZ MS     CLEAR     48  39  71 CALM      30.13R
BATON ROUGE    CLEAR     50  42  74 E7        30.15R
N.O. INTL ARPT CLEAR     53  44  71 CALM      30.17S
SLIDELL        CLEAR     46  43  89 CALM      30.16S
$$

MARINE REPORTS

STATION/POSITION TIME  TEMP    WIND        PRES    VSBY  WAVE
                       AIR SEA DIR/SP/G                  HT/PER
                 (UTC) (F)     (DEG/KT/KT) (MB)    (MI)  (FT/S)
BUOY 30 S HIGH I 0400   63 66  120/ 17/ 21 1017.2F         3/ 4
SEA RIM ST PARK  0300   60     130/ 11/ 13 1019.2S
PORT ARTHUR      0400      66  120/  6/  9 1018.4F
SABINE PASS N    0400   62 65  140/ 13/ 16 1018.2F
TEXAS POINT      0400   62 66  130/ 15/ 17 1018.6F
CALCASIEU PASS   0400   61 65  150/ 11/ 14 1020.0R
LK CHARLES BEACH 0400   56 66              1020.0F
MARSH ISLAND     0300   61     140/ 16/ 19   N/A
FRESH WATER LOCK 0400   59 62  110/  9/ 12 1020.0R
AMERADA PASS     0400   57 60  110/  7/ 11 1020.6R
$$



USA.gov is the U.S. government's official web portal to all federal, state and local government web resources and services.